Location: Allentsteig
(48.6833°N, 15.3167°E)
Time: 10:09:45
(UTC+00:00)

Cosmos 1844 Rocket - Visible Passes

Search period start: 20 January 2021 00:00
Search period end: 30 January 2021 00:00
Orbit: 824 x 845 km, 71.0° (Epoch: 19 January)

Date Brightness Start Highest point End Pass type
(mag) Time Alt. Az. Time Alt. Az. Time Alt. Az.
20 Jan 5.0 03:28:37 12° SSE 03:28:37 12° SSE 03:29:05 10° SSE visible
20 Jan 3.9 16:29:30 10° SSE 16:33:44 22° E 16:37:42 11° NE visible
20 Jan 2.9 18:11:28 10° SW 18:17:06 68° WNW 18:19:24 36° NNE visible
20 Jan 5.1 19:58:25 10° WNW 20:01:07 17° NW 20:01:07 17° NW visible
21 Jan 4.0 16:12:32 10° SE 16:16:34 20° E 16:20:36 10° NE visible
21 Jan 2.8 17:54:12 10° SW 17:59:52 73° WNW 18:03:17 25° NNE visible
21 Jan 4.9 19:40:56 10° W 19:44:47 18° NW 19:44:59 18° NW visible
22 Jan 2.8 17:36:57 10° SSW 17:42:37 79° WNW 17:47:03 17° NNE visible
22 Jan 4.8 19:23:27 10° W 19:27:28 19° NW 19:28:45 18° NNW visible
23 Jan 2.7 17:19:43 10° SSW 17:25:23 85° WNW 17:30:44 12° NNE visible
23 Jan 4.8 19:05:59 10° W 19:10:09 20° NW 19:12:25 16° N visible
24 Jan 2.7 17:02:29 10° SSW 17:08:09 89° ESE 17:13:50 10° NNE visible
24 Jan 4.8 18:48:32 10° W 18:52:50 22° NW 18:56:01 14° N visible
25 Jan 2.7 16:45:16 10° SSW 16:50:56 83° ESE 16:56:37 10° NNE visible
25 Jan 4.7 18:31:06 10° W 18:35:32 23° NW 18:39:33 12° N visible
26 Jan 2.7 16:28:03 10° SSW 16:33:42 77° ESE 16:39:22 10° NNE visible
26 Jan 4.6 18:13:40 10° W 18:18:13 24° NW 18:22:47 10° N visible
27 Jan 4.6 17:56:15 10° W 18:00:55 26° NW 18:05:37 10° NNE visible
28 Jan 4.5 17:38:50 10° WSW 17:43:37 27° NW 17:48:25 10° NNE visible
29 Jan 4.4 17:21:27 10° WSW 17:26:19 29° NW 17:31:13 10° NNE visible
